| time (UTC) | temp F | wind direction | speed knots | gust knots | rain 1hr in | rain 24hr in | rain mn in | humidity % | barometer mb |
| 20260505084021 | 57 | 48 | 18.2 | 28.7 | 0.00 | 0.00 | 0.00 | 72 | 1001.8 |
| 20260505083520 | 58 | 36 | 16.5 | 30.4 | 0.00 | 0.00 | 0.00 | 72 | 1001.6 |
| 20260505083038 | 58 | 28 | 20.9 | 30.4 | 0.00 | 0.00 | 0.00 | 72 | 1001.6 |
| 20260505082520 | 59 | 53 | 15.6 | 29.5 | 0.00 | 0.00 | 0.00 | 74 | 1001.7 |
| 20260505082020 | 59 | 49 | 17.4 | 29.5 | 0.00 | 0.00 | 0.00 | 77 | 1001.7 |
| 20260505081537 | 60 | 49 | 13.9 | 22.6 | 0.00 | 0.00 | 0.00 | 78 | 1001.6 |
| 20260505081022 | 60 | 48 | 13.9 | 19.1 | 0.00 | 0.00 | 0.00 | 79 | 1001.4 |
| 20260505080522 | 61 | 30 | 12.2 | 22.6 | 0.00 | 0.00 | 0.00 | 77 | 1001.4 |
| 20260505080037 | 62 | 34 | 15.6 | 22.6 | 0.00 | 0.00 | 0.00 | 75 | 1001.2 |
| 20260505075521 | 62 | 22 | 13.0 | 20.0 | 0.00 | 0.00 | 0.00 | 74 | 1001.1 |
| 20260505075025 | 62 | 51 | 12.2 | 20.0 | 0.00 | 0.00 | 0.00 | 74 | 1000.9 |
| 20260505074540 | 62 | 68 | 13.9 | 20.0 | 0.00 | 0.00 | 0.00 | 74 | 1000.8 |
| 20260505074021 | 62 | 51 | 13.0 | 23.5 | 0.00 | 0.00 | 0.00 | 74 | 1000.9 |
| 20260505073521 | 63 | 19 | 12.2 | 23.5 | 0.00 | 0.00 | 0.00 | 73 | 1000.9 |
| 20260505073044 | 64 | 24 | 12.2 | 24.3 | 0.00 | 0.00 | 0.00 | 72 | 1000.9 |
| 20260505072521 | 64 | 55 | 15.6 | 24.3 | 0.00 | 0.00 | 0.00 | 71 | 1000.8 |
| 20260505072020 | 65 | 44 | 15.6 | 24.3 | 0.00 | 0.00 | 0.00 | 75 | 1000.7 |
| 20260505071537 | 66 | 44 | 7.8 | 13.9 | 0.00 | 0.00 | 0.00 | 79 | 1000.7 |
| 20260505071020 | 65 | 56 | 7.0 | 11.3 | 0.00 | 0.00 | 0.00 | 79 | 1000.6 |
| 20260505070520 | 65 | 51 | 7.8 | 11.3 | 0.00 | 0.00 | 0.00 | 79 | 1000.5 |
| 20260505070048 | 64 | 54 | 7.0 | 9.6 | 0.00 | 0.00 | 0.00 | 79 | 1000.5 |
| 20260505065523 | 64 | 57 | 6.1 | 9.6 | 0.00 | 0.00 | 0.00 | 79 | 1000.5 |
| 20260505065021 | 64 | 44 | 3.5 | 9.6 | 0.00 | 0.00 | 0.00 | 79 | 1000.5 |
| 20260505064541 | 64 | 46 | 5.2 | 9.6 | 0.00 | 0.00 | 0.00 | 78 | 1000.4 |
| 20260505064021 | 64 | 61 | 3.5 | 7.0 | 0.00 | 0.00 | 0.00 | 78 | 1000.4 |
| 20260505063521 | 64 | 47 | 3.5 | 7.8 | 0.00 | 0.00 | 0.00 | 78 | 1000.3 |
| 20260505063039 | 64 | 22 | 3.5 | 8.7 | 0.00 | 0.00 | 0.00 | 78 | 1000.2 |
| 20260505062521 | 63 | 17 | 3.5 | 10.4 | 0.00 | 0.00 | 0.00 | 78 | 1000.2 |
| 20260505062021 | 63 | 352 | 5.2 | 10.4 | 0.00 | 0.00 | 0.00 | 79 | 1000.0 |
| 20260505061541 | 63 | 27 | 5.2 | 7.8 | 0.00 | 0.00 | 0.00 | 78 | 999.9 |
| 20260505061020 | 63 | 16 | 5.2 | 7.8 | 0.00 | 0.00 | 0.00 | 78 | 999.7 |
| 20260505060523 | 63 | 13 | 3.5 | 7.0 | 0.00 | 0.00 | 0.00 | 78 | 999.7 |
| 20260505060039 | 64 | 36 | 2.6 | 5.2 | 0.00 | 0.00 | 0.00 | 78 | 999.6 |
| 20260505055521 | 64 | 46 | 3.5 | 7.0 | 0.00 | 0.00 | 0.00 | 77 | 999.6 |
| 20260505055021 | 64 | 51 | 2.6 | 7.0 | 0.00 | 0.00 | 0.00 | 76 | 999.5 |
| 20260505054540 | 64 | 47 | 4.3 | 7.0 | 0.00 | 0.00 | 0.00 | 76 | 999.6 |
| 20260505054022 | 65 | 30 | 3.5 | 6.1 | 0.00 | 0.00 | 0.00 | 75 | 999.6 |
| 20260505053527 | 65 | 39 | 2.6 | 7.0 | 0.00 | 0.00 | 0.00 | 75 | 999.5 |
| 20260505053049 | 65 | 94 | 3.5 | 7.8 | 0.00 | 0.00 | 0.00 | 74 | 999.4 |
| 20260505052521 | 65 | 128 | 4.3 | 11.3 | 0.00 | 0.00 | 0.00 | 74 | 999.3 |
| 20260505052021 | 66 | 129 | 3.5 | 11.3 | 0.00 | 0.00 | 0.00 | 74 | 999.1 |
| 20260505051539 | 66 | 135 | 5.2 | 9.6 | 0.00 | 0.00 | 0.00 | 74 | 999.0 |
| 20260505051023 | 66 | 163 | 4.3 | 7.8 | 0.00 | 0.00 | 0.00 | 73 | 999.1 |
| 20260505050523 | 66 | 130 | 5.2 | 7.8 | 0.00 | 0.00 | 0.00 | 73 | 999.2 |
| 20260505041550 | 70 | 150 | 7.8 | 14.8 | 0.00 | 0.00 | 0.00 | 72 | 999.2 |
| 20260505041022 | 70 | 174 | 8.7 | 14.8 | 0.00 | 0.00 | 0.00 | 73 | 999.1 |
| 20260505040522 | 71 | 147 | 8.7 | 14.8 | 0.00 | 0.00 | 0.00 | 73 | 999.3 |
| 20260505040048 | 71 | 130 | 7.8 | 14.8 | 0.00 | 0.00 | 0.00 | 72 | 999.4 |
| 20260505035520 | 71 | 150 | 7.0 | 14.8 | 0.00 | 0.00 | 0.00 | 72 | 999.4 |
| 20260505035020 | 71 | 122 | 8.7 | 12.2 | 0.00 | 0.00 | 0.00 | 72 | 999.0 |
| 20260505034538 | 71 | 118 | 7.0 | 9.6 | 0.00 | 0.00 | 0.00 | 71 | 999.3 |
| 20260505034021 | 71 | 119 | 6.1 | 9.6 | 0.00 | 0.00 | 0.00 | 71 | 999.6 |
| 20260505033521 | 71 | 104 | 6.1 | 8.7 | 0.00 | 0.00 | 0.00 | 71 | 999.8 |
| 20260505033039 | 72 | 132 | 4.3 | 10.4 | 0.00 | 0.00 | 0.00 | 70 | 999.8 |
| 20260505032521 | 72 | 133 | 4.3 | 13.9 | 0.00 | 0.00 | 0.00 | 70 | 999.6 |
| 20260505032021 | 72 | 165 | 7.0 | 17.4 | 0.00 | 0.00 | 0.00 | 70 | 999.5 |
| 20260505031543 | 72 | 169 | 8.7 | 20.0 | 0.00 | 0.00 | 0.00 | 70 | 999.5 |
| 20260505031020 | 72 | 149 | 11.3 | 20.0 | 0.00 | 0.00 | 0.00 | 70 | 999.5 |
| 20260505030520 | 72 | 153 | 11.3 | 17.4 | 0.00 | 0.00 | 0.00 | 70 | 999.6 |
| 20260505030037 | 72 | 174 | 11.3 | 17.4 | 0.00 | 0.00 | 0.00 | 70 | 999.8 |
| 20260505025520 | 72 | 148 | 11.3 | 17.4 | 0.00 | 0.00 | 0.00 | 69 | 999.8 |
| 20260505025022 | 72 | 150 | 7.8 | 13.9 | 0.00 | 0.00 | 0.00 | 68 | 1000.0 |
| 20260505024547 | 72 | 157 | 7.8 | 11.3 | 0.00 | 0.00 | 0.00 | 68 | 999.8 |
| 20260505024023 | 72 | 160 | 6.1 | 13.0 | 0.00 | 0.00 | 0.00 | 67 | 999.7 |
| 20260505023523 | 73 | 151 | 6.1 | 13.0 | 0.00 | 0.00 | 0.00 | 68 | 999.5 |
| 20260505023041 | 73 | 138 | 7.0 | 13.9 | 0.00 | 0.00 | 0.00 | 67 | 999.6 |
| 20260505022523 | 73 | 193 | 7.8 | 14.8 | 0.00 | 0.00 | 0.00 | 67 | 999.8 |
| 20260505022021 | 73 | 147 | 9.6 | 14.8 | 0.00 | 0.00 | 0.00 | 67 | 999.7 |
| 20260505021539 | 73 | 175 | 7.8 | 13.0 | 0.00 | 0.00 | 0.00 | 66 | 1000.0 |
| 20260505021022 | 73 | 180 | 7.8 | 15.6 | 0.00 | 0.00 | 0.00 | 66 | 1000.0 |
| 20260505020521 | 73 | 174 | 8.7 | 15.6 | 0.00 | 0.00 | 0.00 | 66 | 999.8 |
| 20260505020038 | 73 | 160 | 8.7 | 13.9 | 0.00 | 0.00 | 0.00 | 65 | 999.4 |
| 20260505015521 | 73 | 155 | 7.0 | 14.8 | 0.00 | 0.00 | 0.00 | 64 | 999.5 |
| 20260505015022 | 73 | 153 | 7.8 | 15.6 | 0.00 | 0.00 | 0.00 | 64 | 999.3 |
| 20260505014558 | 73 | 153 | 9.6 | 15.6 | 0.00 | 0.00 | 0.00 | 63 | 999.1 |
| 20260505014022 | 74 | 166 | 7.8 | 13.0 | 0.00 | 0.00 | 0.00 | 63 | 999.2 |
| 20260505013520 | 74 | 173 | 7.8 | 12.2 | 0.00 | 0.00 | 0.00 | 62 | 999.1 |
| 20260505013038 | 74 | 150 | 7.8 | 11.3 | 0.00 | 0.00 | 0.00 | 61 | 999.0 |
| 20260505012521 | 74 | 146 | 7.0 | 9.6 | 0.00 | 0.00 | 0.00 | 61 | 999.2 |
| 20260505012022 | 74 | 148 | 5.2 | 10.4 | 0.00 | 0.00 | 0.00 | 60 | 999.0 |
| 20260505011548 | 75 | 179 | 6.1 | 13.9 | 0.00 | 0.00 | 0.00 | 60 | 998.7 |
| 20260505011021 | 75 | 162 | 7.0 | 13.9 | 0.00 | 0.00 | 0.00 | 59 | 998.7 |
| 20260505010521 | 75 | 136 | 7.0 | 13.0 | 0.00 | 0.00 | 0.00 | 58 | 998.5 |
| 20260505010040 | 75 | 147 | 8.7 | 13.0 | 0.00 | 0.00 | 0.00 | 58 | 998.7 |
| 20260505005521 | 76 | 159 | 7.0 | 12.2 | 0.00 | 0.00 | 0.00 | 58 | 998.7 |
| 20260505005023 | 76 | 144 | 4.3 | 10.4 | 0.00 | 0.00 | 0.00 | 57 | 998.8 |
| 20260505004541 | 76 | 155 | 6.1 | 11.3 | 0.00 | 0.00 | 0.00 | 57 | 999.0 |
| 20260505004022 | 76 | 150 | 7.8 | 11.3 | 0.00 | 0.00 | 0.00 | 56 | 999.0 |
| 20260505003521 | 76 | 143 | 6.1 | 11.3 | 0.00 | 0.00 | 0.00 | 56 | 998.9 |
| 20260505003037 | 76 | 168 | 7.0 | 12.2 | 0.00 | 0.00 | 0.00 | 55 | 998.9 |
| 20260505002523 | 77 | 182 | 6.1 | 12.2 | 0.00 | 0.00 | 0.00 | 55 | 999.1 |
| 20260505002020 | 77 | 202 | 7.0 | 13.0 | 0.00 | 0.00 | 0.00 | 55 | 999.0 |
| 20260505001538 | 77 | 184 | 6.1 | 13.0 | 0.00 | 0.00 | 0.00 | 54 | 999.1 |
| 20260505001023 | 77 | 158 | 7.8 | 12.2 | 0.00 | 0.00 | 0.00 | 54 | 999.0 |
| 20260505000526 | 77 | 182 | 7.0 | 12.2 | 0.00 | 0.00 | 0.00 | 53 | 999.2 |
| 20260505000048 | 78 | 141 | 7.8 | 14.8 | 0.00 | 0.00 | 0.00 | 53 | 999.1 |
| 20260504235520 | 78 | 165 | 7.8 | 14.8 | 0.00 | 0.00 | 0.00 | 53 | 999.0 |
| 20260504235024 | 78 | 173 | 7.8 | 14.8 | 0.00 | 0.00 | 0.00 | 52 | 999.2 |
| 20260504234545 | 78 | 193 | 7.0 | 20.0 | 0.00 | 0.00 | 0.00 | 51 | 999.2 |
| 20260504234025 | 79 | 175 | 9.6 | 20.0 | 0.00 | 0.00 | 0.00 | 51 | 999.1 |
| 20260504233521 | 79 | 149 | 10.4 | 17.4 | 0.00 | 0.00 | 0.00 | 50 | 999.1 |
| 20260504233056 | 79 | 215 | 10.4 | 17.4 | 0.00 | 0.00 | 0.00 | 50 | 999.3 |
| 20260504232522 | 79 | 198 | 9.6 | 15.6 | 0.00 | 0.00 | 0.00 | 48 | 999.3 |
| 20260504232020 | 80 | 210 | 7.0 | 15.6 | 0.00 | 0.00 | 0.00 | 48 | 999.2 |
| 20260504231540 | 80 | 171 | 9.6 | 17.4 | 0.00 | 0.00 | 0.00 | 47 | 999.2 |
| 20260504231023 | 80 | 214 | 9.6 | 18.2 | 0.00 | 0.00 | 0.00 | 47 | 999.1 |
| 20260504230520 | 80 | 188 | 10.4 | 18.2 | 0.00 | 0.00 | 0.00 | 48 | 999.3 |
| 20260504230039 | 80 | 181 | 9.6 | 18.2 | 0.00 | 0.00 | 0.00 | 48 | 999.1 |
| 20260504225521 | 81 | 199 | 7.8 | 19.1 | 0.00 | 0.00 | 0.00 | 47 | 999.1 |
| 20260504225021 | 81 | 188 | 10.4 | 20.9 | 0.00 | 0.00 | 0.00 | 46 | 999.2 |
| 20260504224540 | 81 | 158 | 12.2 | 20.9 | 0.00 | 0.00 | 0.00 | 47 | 999.2 |
| 20260504224023 | 81 | 185 | 7.8 | 20.0 | 0.00 | 0.00 | 0.00 | 47 | 999.2 |
| 20260504223521 | 81 | 161 | 11.3 | 20.0 | 0.00 | 0.00 | 0.00 | 46 | 999.2 |
| 20260504223054 | 81 | 198 | 9.6 | 17.4 | 0.00 | 0.00 | 0.00 | 47 | 999.2 |
| 20260504222522 | 82 | 181 | 10.4 | 20.9 | 0.00 | 0.00 | 0.00 | 46 | 999.2 |
| 20260504222020 | 82 | 188 | 10.4 | 20.9 | 0.00 | 0.00 | 0.00 | 46 | 999.2 |
| 20260504221540 | 82 | 165 | 9.6 | 15.6 | 0.00 | 0.00 | 0.00 | 46 | 999.1 |
| 20260504221021 | 82 | 181 | 10.4 | 20.0 | 0.00 | 0.00 | 0.00 | 47 | 999.3 |
| 20260504220521 | 82 | 190 | 9.6 | 20.9 | 0.00 | 0.00 | 0.00 | 45 | 999.2 |
| 20260504220040 | 82 | 209 | 10.4 | 20.9 | 0.00 | 0.00 | 0.00 | 45 | 999.3 |
| 20260504215520 | 82 | 158 | 10.4 | 20.0 | 0.00 | 0.00 | 0.00 | 44 | 999.3 |
| 20260504215021 | 82 | 203 | 11.3 | 18.2 | 0.00 | 0.00 | 0.00 | 44 | 999.4 |
| 20260504214537 | 82 | 202 | 9.6 | 20.9 | 0.00 | 0.00 | 0.00 | 44 | 999.5 |
| 20260504214021 | 82 | 194 | 11.3 | 20.9 | 0.00 | 0.00 | 0.00 | 45 | 999.5 |
| 20260504213521 | 83 | 181 | 9.6 | 19.1 | 0.00 | 0.00 | 0.00 | 43 | 999.6 |
| 20260504213050 | 83 | 217 | 8.7 | 19.1 | 0.00 | 0.00 | 0.00 | 42 | 999.5 |
| 20260504212520 | 84 | 188 | 11.3 | 18.2 | 0.00 | 0.00 | 0.00 | 41 | 999.4 |
| 20260504212023 | 85 | 167 | 7.8 | 20.0 | 0.00 | 0.00 | 0.00 | 43 | 999.5 |
| 20260504211537 | 84 | 164 | 10.4 | 20.0 | 0.00 | 0.00 | 0.00 | 43 | 999.6 |
| 20260504211022 | 84 | 219 | 11.3 | 19.1 | 0.00 | 0.00 | 0.00 | 42 | 999.8 |
| 20260504210520 | 84 | 169 | 8.7 | 19.1 | 0.00 | 0.00 | 0.00 | 40 | 999.7 |
| 20260504210040 | 85 | 182 | 12.2 | 19.1 | 0.00 | 0.00 | 0.00 | 41 | 999.8 |
| 20260504205521 | 85 | 173 | 11.3 | 20.9 | 0.00 | 0.00 | 0.00 | 42 | 999.8 |
| 20260504205023 | 85 | 194 | 13.0 | 20.9 | 0.00 | 0.00 | 0.00 | 41 | 999.9 |
| 20260504204543 | 85 | 200 | 8.7 | 17.4 | 0.00 | 0.00 | 0.00 | 40 | 999.9 |
| 20260504204025 | 85 | 173 | 9.6 | 16.5 | 0.00 | 0.00 | 0.00 | 41 | 999.9 |
| 20260504203521 | 85 | 204 | 9.6 | 20.9 | 0.00 | 0.00 | 0.00 | 40 | 1000.0 |
| 20260504203051 | 85 | 175 | 9.6 | 20.9 | 0.00 | 0.00 | 0.00 | 41 | 1000.0 |
| 20260504202521 | 85 | 173 | 12.2 | 20.9 | 0.00 | 0.00 | 0.00 | 41 | 1000.2 |
| 20260504202020 | 85 | 159 | 11.3 | 20.9 | 0.00 | 0.00 | 0.00 | 43 | 1000.2 |
| 20260504201539 | 85 | 194 | 12.2 | 20.0 | 0.00 | 0.00 | 0.00 | 41 | 1000.3 |
| 20260504201023 | 85 | 201 | 7.8 | 20.0 | 0.00 | 0.00 | 0.00 | 40 | 1000.3 |
| 20260504200520 | 85 | 181 | 9.6 | 20.0 | 0.00 | 0.00 | 0.00 | 41 | 1000.3 |
| 20260504200038 | 85 | 186 | 7.8 | 18.2 | 0.00 | 0.00 | 0.00 | 41 | 1000.4 |
| 20260504195520 | 86 | 224 | 6.1 | 17.4 | 0.00 | 0.00 | 0.00 | 41 | 1000.5 |
| 20260504195020 | 85 | 198 | 8.7 | 17.4 | 0.00 | 0.00 | 0.00 | 42 | 1000.5 |
| 20260504194537 | 85 | 147 | 6.1 | 9.6 | 0.00 | 0.00 | 0.00 | 40 | 1000.6 |
| 20260504194021 | 85 | 215 | 5.2 | 10.4 | 0.00 | 0.00 | 0.00 | 40 | 1000.6 |
| 20260504193524 | 85 | 213 | 3.5 | 14.8 | 0.00 | 0.00 | 0.00 | 39 | 1000.7 |
| 20260504193037 | 84 | 219 | 6.1 | 14.8 | 0.00 | 0.00 | 0.00 | 42 | 1000.9 |
| 20260504192522 | 84 | 186 | 7.0 | 13.9 | 0.00 | 0.00 | 0.00 | 41 | 1000.8 |
| 20260504192021 | 85 | 213 | 4.3 | 14.8 | 0.00 | 0.00 | 0.00 | 39 | 1000.9 |
| 20260504191541 | 85 | 231 | 7.8 | 16.5 | 0.00 | 0.00 | 0.00 | 39 | 1001.0 |
| 20260504191021 | 85 | 178 | 8.7 | 16.5 | 0.00 | 0.00 | 0.00 | 43 | 1000.9 |
| 20260504190521 | 84 | 150 | 5.2 | 15.6 | 0.00 | 0.00 | 0.00 | 42 | 1001.0 |
| 20260504190037 | 84 | 158 | 4.3 | 15.6 | 0.00 | 0.00 | 0.00 | 42 | 1001.0 |
| 20260504185520 | 84 | 256 | 7.8 | 17.4 | 0.00 | 0.00 | 0.00 | 41 | 1001.1 |
| 20260504185021 | 84 | 216 | 8.7 | 17.4 | 0.00 | 0.00 | 0.00 | 41 | 1001.2 |
| 20260504184540 | 84 | 254 | 8.7 | 15.6 | 0.00 | 0.00 | 0.00 | 42 | 1001.1 |
| 20260504184021 | 84 | 246 | 6.1 | 14.8 | 0.00 | 0.00 | 0.00 | 42 | 1001.1 |
| 20260504183522 | 83 | 169 | 6.1 | 14.8 | 0.00 | 0.00 | 0.00 | 44 | 1001.1 |
| 20260504183037 | 84 | 202 | 7.8 | 13.9 | 0.00 | 0.00 | 0.00 | 41 | 1001.2 |
| 20260504182521 | 83 | 185 | 4.3 | 12.2 | 0.00 | 0.00 | 0.00 | 42 | 1001.3 |
| 20260504182021 | 83 | 235 | 5.2 | 12.2 | 0.00 | 0.00 | 0.00 | 43 | 1001.4 |
| 20260504181544 | 83 | 225 | 5.2 | 13.9 | 0.00 | 0.00 | 0.00 | 43 | 1001.4 |
| 20260504181021 | 83 | 190 | 5.2 | 13.9 | 0.00 | 0.00 | 0.00 | 42 | 1001.4 |
| 20260504180522 | 83 | 152 | 5.2 | 11.3 | 0.00 | 0.00 | 0.00 | 44 | 1001.6 |
| 20260504180037 | 82 | 188 | 7.0 | 16.5 | 0.00 | 0.00 | 0.00 | 43 | 1001.6 |
| 20260504175522 | 82 | 248 | 4.3 | 16.5 | 0.00 | 0.00 | 0.00 | 41 | 1001.6 |
| 20260504175021 | 82 | 198 | 7.8 | 13.9 | 0.00 | 0.00 | 0.00 | 42 | 1001.6 |
| 20260504174536 | 81 | 242 | 5.2 | 13.0 | 0.00 | 0.00 | 0.00 | 43 | 1001.8 |
| 20260504174022 | 81 | 245 | 6.1 | 13.9 | 0.00 | 0.00 | 0.00 | 45 | 1001.7 |
| 20260504173522 | 81 | 234 | 7.0 | 16.5 | 0.00 | 0.00 | 0.00 | 44 | 1001.8 |
| 20260504173032 | 81 | 201 | 7.0 | 16.5 | 0.00 | 0.00 | 0.00 | 44 | 1001.7 |
| 20260504172520 | 80 | 205 | 7.8 | 14.8 | 0.00 | 0.00 | 0.00 | 44 | 1001.7 |
| 20260504172021 | 80 | 202 | 7.8 | 15.6 | 0.00 | 0.00 | 0.00 | 46 | 1001.7 |
| 20260504171545 | 80 | 183 | 7.0 | 15.6 | 0.00 | 0.00 | 0.00 | 44 | 1001.7 |
| 20260504171023 | 80 | 225 | 6.1 | 15.6 | 0.00 | 0.00 | 0.00 | 44 | 1001.8 |
| 20260504170523 | 79 | 245 | 7.8 | 15.6 | 0.00 | 0.00 | 0.00 | 47 | 1001.8 |
| 20260504151021 | 72 | 218 | 10.4 | 21.7 | 0.00 | 0.00 | 0.00 | 52 | 1002.3 |
| 20260504150520 | 72 | 227 | 9.6 | 21.7 | 0.00 | 0.00 | 0.00 | 50 | 1002.3 |
| 20260504141020 | 68 | 244 | 7.8 | 19.1 | 0.00 | 0.00 | 0.00 | 55 | 1002.5 |
| 20260504140521 | 68 | 204 | 7.8 | 18.2 | 0.00 | 0.00 | 0.00 | 54 | 1002.5 |
| 20260504130525 | 64 | 221 | 7.8 | 20.0 | 0.00 | 0.00 | 0.00 | 59 | 1002.5 |
| 20260504110524 | 63 | 217 | 8.7 | 15.6 | 0.00 | 0.00 | 0.00 | 56 | 1002.4 |
| 20260504100520 | 64 | 223 | 10.4 | 20.9 | 0.00 | 0.00 | 0.00 | 53 | 1002.9 |